FW3175 Weather Reports


time (UTC)temp
F
wind
direction
speed
knots
gust
knots
rain 1hr
in
rain 24hr
in
rain mn
in
humidity
%
barometer
mb
20260906224609 81 144 0.9 4.3 0.00 0.00 0.00 32 1000.3
20260906223106 80 205 0.9 6.1 0.00 0.00 0.00 33 1000.6
20260906221603 78 161 0.0 7.0 0.00 0.00 0.00 36 1000.8
20260906220054 77 305 0.9 6.1 0.00 0.00 0.00 37 1001.1
20260906214522 78 163 0.9 7.8 0.00 0.00 0.00 36 1001.2
20260906213021 78 232 0.9 9.6 0.00 0.00 0.00 36 1001.4
20260906211550 78 249 1.7 10.4 0.00 0.00 0.00 35 1001.6
20260906210106 81 294 2.6 8.7 0.00 0.00 0.00 31 1001.6
20260906204546 81 171 2.6 13.9 0.00 0.00 0.00 32 1001.8
20260906203045 80 222 0.9 7.0 0.00 0.00 0.00 32 1002.0
20260906201607 79 259 1.7 10.4 0.00 0.00 0.00 33 1001.9
20260906200043 77 128 0.9 7.8 0.00 0.00 0.00 33 1002.0
20260906194542 80 333 0.9 7.8 0.00 0.00 0.00 31 1002.1
20260906193039 79 167 0.9 4.3 0.00 0.00 0.00 28 1002.1
20260906191540 80 246 2.6 7.0 0.00 0.00 0.00 27 1002.4
20260906190034 80 242 0.9 7.0 0.00 0.00 0.00 29 1002.6
20260906184542 78 250 2.6 10.4 0.00 0.00 0.00 31 1002.9
20260906183032 79 269 2.6 9.6 0.00 0.00 0.00 31 1003.2
20260906181546 78 206 1.7 7.0 0.00 0.00 0.00 31 1003.6
20260906180016 77 254 0.0 4.3 0.00 0.00 0.00 31 1003.9
20260906174517 76 287 0.9 5.2 0.00 0.00 0.00 33 1004.2
20260906173009 75 325 1.7 7.0 0.00 0.00 0.00 35 1004.5
20260906171509 75 204 1.7 7.0 0.00 0.00 0.00 35 1004.8
20260906170016 74 274 1.7 7.0 0.00 0.00 0.00 36 1005.0
20260906164503 73 259 0.9 6.1 0.00 0.00 0.00 37 1005.3
20260906163105 73 271 0.9 5.2 0.00 0.00 0.00 37 1005.4
20260906161606 72 250 0.0 7.0 0.00 0.00 0.00 38 1005.4
20260906160055 71 321 0.9 4.3 0.00 0.00 0.00 40 1005.3
20260906154552 68 92 0.0 2.6 0.00 0.00 0.00 47 1005.1
20260906153042 66 60 0.0 0.9 0.00 0.00 0.00 50 1005.1
20260906151541 64 60 0.0 1.7 0.00 0.00 0.00 53 1005.2
20260906150038 64 328 0.0 0.9 0.00 0.00 0.00 52 1005.0
20260906144536 60 327 0.0 0.0 0.00 0.00 0.00 60 1005.1
20260906143100 57 323 0.9 1.7 0.00 0.00 0.00 63 1005.0
20260906141559 54 55 0.0 0.9 0.00 0.00 0.00 68 1004.9
20260906134602 53 65 0.0 0.0 0.00 0.00 0.00 68 1004.3
20260906133044 0 0.0 0.0 0.00 0.00 0.00 1004.3
20260906131541 0 0.0 0.0 0.00 0.00 0.00 1004.2
20260906130035 0 0.0 0.0 0.00 0.00 0.00 1004.0
20260906124531 0 0.0 0.0 0.00 0.00 0.00 1004.0
20260906123032 0 0.0 0.0 0.00 0.00 0.00 1004.0
20260906121528 0 0.0 0.0 0.00 0.00 0.00 1004.2
20260906120016 0 0.0 0.0 0.00 0.00 0.00 1004.3
20260906114532 0 0.0 0.0 0.00 0.00 0.00 1004.5
20260906113008 0 0.0 0.0 0.00 0.00 0.00 1004.5
20260906111503 0 0.0 0.0 0.00 0.00 0.00 1004.5
20260906110057 0 0.0 0.0 0.00 0.00 0.00 1004.6
20260906104555 52 19 0.0 0.0 0.00 0.00 0.00 72 1004.6
20260906103054 54 19 0.0 0.0 0.00 0.00 0.00 70 1004.7
20260906101559 54 36 0.0 0.0 0.00 0.00 0.00 69 1004.7
20260906100050 53 36 0.0 0.0 0.00 0.00 0.00 71 1004.5
20260906094555 53 36 0.0 0.0 0.00 0.00 0.00 74 1004.6
20260906093048 53 74 0.0 0.0 0.00 0.00 0.00 74 1004.8
20260906091550 53 31 0.0 0.0 0.00 0.00 0.00 74 1004.8
20260906090045 54 40 0.0 0.0 0.00 0.00 0.00 72 1004.8
20260906084545 53 49 0.0 0.0 0.00 0.00 0.00 76 1004.8
20260906083044 53 24 0.0 0.0 0.00 0.00 0.00 77 1004.8
20260906081543 54 44 0.0 0.0 0.00 0.00 0.00 75 1004.9
20260906080042 54 343 0.0 0.0 0.00 0.00 0.00 73 1004.9
20260906074544 54 343 0.0 0.0 0.00 0.00 0.00 74 1005.0
20260906073044 53 39 0.0 0.0 0.00 0.00 0.00 77 1004.9
20260906071539 53 40 0.0 0.0 0.00 0.00 0.00 77 1004.9
20260906070035 54 46 0.0 0.0 0.00 0.00 0.00 77 1004.8
20260906064537 54 321 0.0 0.0 0.00 0.00 0.00 78 1004.7
20260906063033 54 56 0.0 0.0 0.00 0.00 0.00 74 1004.6
20260906061531 55 61 0.0 0.9 0.00 0.00 0.00 79 1004.6
20260906060034 55 107 0.0 3.5 0.00 0.00 0.00 76 1004.9
20260906054524 57 74 0.0 0.9 0.00 0.00 0.00 73 1005.0
20260906053030 57 65 0.0 1.7 0.00 0.00 0.00 72 1005.2
20260906051519 58 40 0.0 0.9 0.00 0.00 0.00 70 1005.5
20260906050017 59 72 0.0 3.5 0.00 0.00 0.00 65 1005.6
20260906044514 60 88 0.0 4.3 0.00 0.00 0.00 62 1005.5
20260906043014 60 111 0.9 5.2 0.00 0.00 0.00 63 1005.5
20260906041518 59 87 0.9 5.2 0.00 0.00 0.00 66 1005.4
20260906040024 60 64 0.9 11.3 0.00 0.00 0.00 64 1005.4
20260906034506 63 82 1.7 7.8 0.00 0.00 0.00 54 1004.9
20260906033004 65 32 1.7 7.8 0.00 0.00 0.00 48 1004.7
20260906031503 65 106 0.9 2.6 0.00 0.00 0.00 42 1004.4
20260906030004 66 292 0.0 0.0 0.00 0.00 0.00 41 1003.8
20260906024541 65 287 0.0 0.0 0.00 0.00 0.00 42 1003.7
20260906023040 65 287 0.0 0.0 0.00 0.00 0.00 42 1003.6
20260906021530 65 271 0.0 0.0 0.00 0.00 0.00 41 1003.5
20260906020035 66 275 0.0 0.9 0.00 0.00 0.00 40 1003.2
20260906014529 67 263 0.0 0.9 0.00 0.00 0.00 38 1003.2
20260906013029 69 265 0.0 1.7 0.00 0.00 0.00 36 1003.0
20260906011526 71 281 0.0 0.9 0.00 0.00 0.00 34 1003.0
20260906010025 75 271 0.0 1.7 0.00 0.00 0.00 30 1003.0
20260906004524 77 286 0.0 1.7 0.00 0.00 0.00 28 1002.9
20260906003024 76 48 0.0 2.6 0.00 0.00 0.00 29 1002.9
20260906001522 77 294 0.9 4.3 0.00 0.00 0.00 27 1002.9
20260906000022 78 289 0.9 5.2 0.00 0.00 0.00 27 1002.9
20260905234521 75 294 1.7 7.0 0.00 0.00 0.00 29 1002.8
20260905233021 77 274 1.7 7.8 0.00 0.00 0.00 27 1002.8
20260905231524 79 167 0.9 6.1 0.00 0.00 0.00 26 1002.6
20260905230017 80 294 2.6 7.8 0.00 0.00 0.00 25 1002.6